This is the latest recevied weather packets stored in our database for station/object KO6HRZ. If no packets are shown the sender has not sent any weather packets the latest 10 day(s).
| Time | Temp. | Humidity | Pressure | Rain* | Wind** | Luminosity | Snow |
|---|---|---|---|---|---|---|---|
| 1788151636 | 20.56° C | 62% | 1008.9 hPa | 0 mm | - | 0 W/m² | - |
| 1788151032 | 21.11° C | 61% | 1008.7 hPa | 0 mm | - | 0 W/m² | - |
| 1788150433 | 21.11° C | 60% | 1008.8 hPa | 0 mm | - | 0 W/m² | - |
| 1788149828 | 21.67° C | 59% | 1008.9 hPa | 0 mm | - | 0 W/m² | - |
| 1788149223 | 21.67° C | 58% | 1008.5 hPa | 0 mm | - | 0 W/m² | - |
| 1788148621 | 22.22° C | 58% | 1008.5 hPa | 0 mm | - | 0 W/m² | - |
| 1788148020 | 22.78° C | 56% | 1008.3 hPa | 0 mm | - | 0 W/m² | - |
| 1788147417 | 22.78° C | 55% | 1008.5 hPa | 0 mm | - | 0 W/m² | - |
| 1788146818 | 23.89° C | 54% | 1008.4 hPa | 0 mm | - | 0 W/m² | - |
| 1788146219 | 24.44° C | 52% | 1008.2 hPa | 0 mm | - | 0 W/m² | - |
| 1788145611 | 25° C | 48% | 1008 hPa | 0 mm | - | 0 W/m² | - |
| 1788145009 | 25.56° C | 46% | 1008.1 hPa | 0 mm | - | 0 W/m² | - |
| 1788144407 | 26.11° C | 43% | 1008 hPa | 0 mm | - | 1 W/m² | - |
| 1788143804 | 26.67° C | 44% | 1008.1 hPa | 0 mm | - | 4 W/m² | - |
| 1788143198 | 27.22° C | 42% | 1007.9 hPa | 0 mm | - | 11 W/m² | - |
| 1788142598 | 27.78° C | 41% | 1008 hPa | 0 mm | - | 16 W/m² | - |
| 1788141996 | 27.78° C | 40% | 1007.8 hPa | 0 mm | - | 20 W/m² | - |
| 1788141392 | 28.89° C | 38% | 1008 hPa | 0 mm | - | 25 W/m² | - |
| 1788140792 | 29.44° C | 35% | 1007.9 hPa | 0 mm | - | 29 W/m² | - |
| 1788140189 | 30.56° C | 34% | 1007.6 hPa | 0 mm | - | 33 W/m² | - |
| 1788139590 | 30.56° C | 35% | 1007.8 hPa | 0 mm | - | 42 W/m² | - |
| 1788138990 | 30.56° C | 34% | 1007.9 hPa | 0 mm | - | 97 W/m² | - |
| 1788138387 | 31.67° C | 33% | 1008.2 hPa | 0 mm | - | 55 W/m² | - |
| 1788137782 | 31.67° C | 32% | 1008 hPa | 0 mm | - | 66 W/m² | - |
| 1788137179 | 32.22° C | 33% | 1008 hPa | 0 mm | - | 47 W/m² | - |
* Rain latest hour (hover to see other rain measurements)
** Current wind speed in m/s (hover to see current wind gust speed)